TimeCST,TemperatureF,Dew PointF,Humidity,Sea Level PressureIn,VisibilityMPH,Wind Direction,Wind SpeedMPH,Gust SpeedMPH,PrecipitationIn,Events,Conditions,WindDirDegrees,DateUTC
12:15 AM,12.2,5.0,73,30.25,10.0,North,8.1,-,N/A,,Clear,350,2014-02-02 06:15:00
12:35 AM,12.2,5.0,73,30.26,10.0,North,5.8,-,N/A,,Clear,350,2014-02-02 06:35:00
12:55 AM,10.4,6.8,85,30.26,10.0,North,4.6,-,N/A,,Clear,350,2014-02-02 06:55:00
1:15 AM,10.4,3.2,73,30.27,10.0,NNW,6.9,-,N/A,,Clear,330,2014-02-02 07:15:00
1:35 AM,8.6,1.4,73,30.26,10.0,NNW,9.2,-,N/A,,Clear,330,2014-02-02 07:35:00
1:55 AM,8.6,3.2,79,30.26,10.0,NNW,9.2,-,N/A,,Clear,330,2014-02-02 07:55:00
2:15 AM,10.4,3.2,73,30.25,10.0,NNW,11.5,-,N/A,,Clear,340,2014-02-02 08:15:00
2:35 AM,8.6,3.2,79,30.27,10.0,NNW,6.9,-,N/A,,Clear,340,2014-02-02 08:35:00
2:55 AM,10.4,5.0,79,30.28,10.0,NNW,5.8,-,N/A,,Clear,330,2014-02-02 08:55:00
3:15 AM,8.6,1.4,73,30.27,10.0,NNW,9.2,-,N/A,,Clear,340,2014-02-02 09:15:00
3:35 AM,8.6,1.4,73,30.27,10.0,NNW,9.2,-,N/A,,Clear,340,2014-02-02 09:35:00
3:55 AM,6.8,1.4,79,30.27,10.0,NNW,5.8,-,N/A,,Clear,340,2014-02-02 09:55:00
4:15 AM,8.6,1.4,73,30.28,10.0,NW,3.5,-,N/A,,Clear,320,2014-02-02 10:15:00
4:35 AM,6.8,3.2,85,30.26,10.0,NW,4.6,-,N/A,,Clear,320,2014-02-02 10:35:00
4:55 AM,5.0,-0.4,78,30.26,10.0,Calm,Calm,-,N/A,,Clear,0,2014-02-02 10:55:00
5:15 AM,6.8,3.2,85,30.25,10.0,NNW,8.1,-,N/A,,Clear,340,2014-02-02 11:15:00
5:35 AM,3.2,-2.2,78,30.25,10.0,SSE,3.5,-,N/A,,Clear,160,2014-02-02 11:35:00
5:55 AM,1.4,-2.2,85,30.27,10.0,WSW,3.5,-,N/A,,Clear,240,2014-02-02 11:55:00
6:15 AM,1.4,-0.4,92,30.27,10.0,WNW,6.9,-,N/A,,Clear,290,2014-02-02 12:15:00
6:35 AM,1.4,-2.2,85,30.28,10.0,NW,8.1,-,N/A,,Clear,320,2014-02-02 12:35:00
6:55 AM,3.2,1.4,92,30.28,10.0,NNW,8.1,-,N/A,,Clear,330,2014-02-02 12:55:00
7:15 AM,5.0,1.4,85,30.30,10.0,NW,4.6,-,N/A,,Clear,310,2014-02-02 13:15:00
7:35 AM,5.0,-0.4,78,30.30,10.0,Calm,Calm,-,N/A,,Clear,0,2014-02-02 13:35:00
7:55 AM,3.2,-2.2,78,30.30,10.0,Calm,Calm,-,N/A,,Clear,0,2014-02-02 13:55:00
8:15 AM,5.0,-0.4,78,30.31,10.0,Calm,Calm,-,N/A,,Clear,0,2014-02-02 14:15:00
8:35 AM,5.0,-0.4,78,30.32,10.0,Calm,Calm,-,N/A,,Clear,0,2014-02-02 14:35:00
8:55 AM,6.8,3.2,85,30.31,10.0,WNW,3.5,-,N/A,,Clear,290,2014-02-02 14:55:00
9:15 AM,8.6,6.8,92,30.32,10.0,West,3.5,-,N/A,,Clear,280,2014-02-02 15:15:00
9:35 AM,10.4,6.8,85,30.31,10.0,WNW,5.8,-,N/A,,Clear,300,2014-02-02 15:35:00
9:55 AM,12.2,6.8,79,30.32,10.0,WNW,4.6,-,N/A,,Clear,290,2014-02-02 15:55:00
10:15 AM,14.0,6.8,73,30.31,10.0,WNW,4.6,-,N/A,,Clear,300,2014-02-02 16:15:00
10:35 AM,15.8,6.8,68,30.32,10.0,WNW,3.5,-,N/A,,Clear,290,2014-02-02 16:35:00
10:55 AM,17.6,6.8,63,30.33,10.0,South,3.5,-,N/A,,Clear,190,2014-02-02 16:55:00
11:15 AM,19.4,8.6,63,30.33,10.0,Calm,Calm,-,N/A,,Clear,0,2014-02-02 17:15:00
11:35 AM,19.4,8.6,63,30.33,10.0,Calm,Calm,-,N/A,,Clear,0,2014-02-02 17:35:00
11:55 AM,21.2,8.6,58,30.32,10.0,SSW,3.5,-,N/A,,Clear,200,2014-02-02 17:55:00
12:15 PM,21.2,8.6,58,30.31,10.0,South,4.6,-,N/A,,Clear,180,2014-02-02 18:15:00
12:35 PM,21.2,8.6,58,30.30,10.0,South,3.5,-,N/A,,Clear,170,2014-02-02 18:35:00
12:55 PM,23.0,8.6,54,30.28,10.0,South,4.6,-,N/A,,Clear,190,2014-02-02 18:55:00
1:15 PM,24.8,8.6,50,30.27,10.0,SSW,4.6,-,N/A,,Clear,210,2014-02-02 19:15:00
1:35 PM,24.8,10.4,54,30.25,10.0,SSE,3.5,-,N/A,,Clear,160,2014-02-02 19:35:00
1:55 PM,24.8,10.4,54,30.25,10.0,SSW,6.9,-,N/A,,Clear,200,2014-02-02 19:55:00
2:15 PM,26.6,10.4,51,30.24,10.0,SSW,10.4,-,N/A,,Clear,200,2014-02-02 20:15:00
2:35 PM,26.6,10.4,51,30.23,10.0,South,9.2,-,N/A,,Clear,180,2014-02-02 20:35:00
2:55 PM,26.6,10.4,51,30.23,10.0,SSW,9.2,-,N/A,,Clear,200,2014-02-02 20:55:00
3:15 PM,26.6,10.4,51,30.22,10.0,SSE,8.1,-,N/A,,Clear,160,2014-02-02 21:15:00
3:35 PM,28.4,12.2,51,30.22,10.0,South,6.9,-,N/A,,Clear,180,2014-02-02 21:35:00
3:55 PM,28.4,12.2,51,30.22,10.0,SSW,8.1,-,N/A,,Clear,200,2014-02-02 21:55:00
4:15 PM,28.4,12.2,51,30.22,10.0,South,10.4,-,N/A,,Clear,190,2014-02-02 22:15:00
4:35 PM,28.4,12.2,51,30.22,10.0,South,11.5,-,N/A,,Clear,180,2014-02-02 22:35:00
4:55 PM,28.4,10.4,47,30.22,10.0,South,11.5,-,N/A,,Clear,190,2014-02-02 22:55:00
5:15 PM,28.4,10.4,47,30.22,10.0,South,11.5,-,N/A,,Clear,170,2014-02-02 23:15:00
5:35 PM,26.6,10.4,51,30.21,10.0,South,10.4,-,N/A,,Clear,170,2014-02-02 23:35:00
5:55 PM,24.8,10.4,54,30.21,10.0,South,8.1,-,N/A,,Clear,170,2014-02-02 23:55:00
6:15 PM,23.0,10.4,59,30.21,10.0,South,6.9,-,N/A,,Clear,170,2014-02-03 00:15:00
6:35 PM,21.2,10.4,63,30.21,10.0,South,6.9,-,N/A,,Clear,170,2014-02-03 00:35:00
6:55 PM,19.4,10.4,68,30.21,10.0,SSE,5.8,-,N/A,,Clear,160,2014-02-03 00:55:00
7:15 PM,19.4,8.6,63,30.21,10.0,SSE,8.1,-,N/A,,Clear,150,2014-02-03 01:15:00
7:35 PM,17.6,8.6,68,30.21,10.0,SSE,6.9,-,N/A,,Clear,160,2014-02-03 01:35:00
7:55 PM,17.6,8.6,68,30.21,10.0,SSE,6.9,-,N/A,,Clear,150,2014-02-03 01:55:00
8:15 PM,17.6,8.6,68,30.20,10.0,SSE,8.1,-,N/A,,Clear,150,2014-02-03 02:15:00
8:35 PM,15.8,8.6,73,30.20,10.0,SSE,8.1,-,N/A,,Clear,150,2014-02-03 02:35:00
8:55 PM,15.8,8.6,73,30.19,10.0,SE,5.8,-,N/A,,Clear,130,2014-02-03 02:55:00
9:15 PM,15.8,8.6,73,30.19,10.0,SE,6.9,-,N/A,,Clear,130,2014-02-03 03:15:00
9:35 PM,14.0,8.6,79,30.19,10.0,SE,6.9,-,N/A,,Clear,140,2014-02-03 03:35:00
9:55 PM,14.0,8.6,79,30.19,10.0,SSE,3.5,-,N/A,,Clear,150,2014-02-03 03:55:00
10:15 PM,15.8,8.6,73,30.19,10.0,SSE,4.6,-,N/A,,Clear,150,2014-02-03 04:15:00
10:35 PM,15.8,8.6,73,30.19,10.0,SSE,4.6,-,N/A,,Clear,150,2014-02-03 04:35:00
10:55 PM,15.8,6.8,68,30.19,10.0,Calm,Calm,-,N/A,,Clear,0,2014-02-03 04:55:00
11:15 PM,15.8,8.6,73,30.20,10.0,Calm,Calm,-,N/A,,Clear,0,2014-02-03 05:15:00
11:35 PM,15.8,6.8,68,30.20,10.0,South,3.5,-,N/A,,Clear,190,2014-02-03 05:35:00
11:55 PM,15.8,6.8,68,30.20,10.0,SSW,6.9,-,N/A,,Clear,200,2014-02-03 05:55:00